Location: Lecco
(45.8566°N, 9.3977°E)
Time: 12:17:30
(UTC+02:00)

SR - Visible Passes

Search period start: 07 August 2020 00:00
Search period end: 17 August 2020 00:00
Orbit: 584 x 871 km, 66.7° (Epoch: 06 August)

Date Brightness Start Highest point End Pass type
(mag) Time Alt. Az. Time Alt. Az. Time Alt. Az.
07 Aug ? 01:43:59 10° WNW 01:46:42 16° NW 01:49:21 10° N visible
07 Aug ? 23:15:24 38° E 23:15:24 38° E 23:18:38 10° NE visible
08 Aug ? 00:54:44 20° W 00:56:38 26° NW 01:00:18 10° NNE visible
08 Aug ? 22:26:02 19° E 22:26:02 19° E 22:28:19 10° ENE visible
09 Aug ? 00:05:21 35° W 00:06:45 48° NW 00:10:57 10° NNE visible
09 Aug ? 01:49:27 10° NW 01:49:48 10° NNW 01:50:08 10° NNW visible
09 Aug ? 23:15:37 45° SSW 23:17:00 84° ESE 23:21:21 10° NE visible
10 Aug ? 00:56:44 10° WNW 00:59:33 16° NW 01:02:19 10° N visible
10 Aug ? 22:25:08 23° S 22:27:23 40° ESE 22:31:29 10° NE visible
11 Aug ? 00:05:39 10° WSW 00:09:30 27° NW 00:13:13 10° NNE visible
11 Aug ? 05:20:57 10° NNE 05:22:04 11° NNE 05:23:12 10° NE visible
11 Aug ? 21:34:39 10° SSE 21:37:55 20° ESE 21:41:06 10° ENE visible
11 Aug ? 23:15:12 10° SW 23:19:37 51° NW 23:23:51 10° NNE visible
12 Aug ? 01:01:45 10° NW 01:02:38 10° NNW 01:03:30 10° NNW visible
12 Aug ? 22:25:20 10° SSW 22:29:53 79° ESE 22:34:14 10° NE visible
13 Aug ? 00:09:29 10° W 00:12:24 17° NW 00:15:16 10° N visible
13 Aug ? 05:22:18 10° N 05:25:08 17° NE 05:28:02 10° E visible
13 Aug ? 21:36:06 10° S 21:40:18 37° ESE 21:44:19 10° NE visible
13 Aug ? 23:18:28 10° WSW 23:22:22 29° NW 23:26:08 10° NNE visible
14 Aug ? 04:34:08 10° NNE 04:34:55 10° NNE 04:35:41 10° NE visible
14 Aug ? 22:28:04 10° SW 22:32:30 54° NW 22:36:44 10° NNE visible
15 Aug ? 00:14:16 10° NW 00:15:28 11° NNW 00:16:39 10° NNW visible
15 Aug ? 05:24:20 10° NNW 05:28:03 27° NE 05:31:54 10° ESE visible
15 Aug ? 21:38:15 10° SSW 21:42:47 74° ESE 21:47:06 10° NE visible
15 Aug ? 23:22:14 10° W 23:25:15 18° NW 23:28:13 10° N visible
16 Aug ? 04:35:15 10° N 04:37:59 16° NE 04:40:47 10° ENE visible
16 Aug ? 22:31:17 10° WSW 22:35:13 30° NW 22:39:04 10° NNE visible
